EHI
31 37 37 27 24 23 27 34 39 41 38 31 24 20 18 14 11 9 9 8 8 6 7 8 7 4 1 1 1 2 2 1 0 0 0 0 0 0 0 0 0 0 0
40 43 40 33 30 29 35 45 51 52 50 46 42 37 33 27 21 18 16 14 12 9 10 12 10 6 2 2 3 3 3 2 1 0 0 0 0 0 0 0 0 0 0
48 46 41 38 39 40 49 58 64 65 66 66 65 62 56 48 39 34 29 24 19 15 14 13 12 9 5 3 4 4 3 3 2 1 0 0 0 0 0 0 0 0 0
47 44 42 43 45 48 58 66 71 73 75 79 82 80 72 63 56 48 39 30 24 19 14 10 9 9 7 6 5 3 2 2 2 1 0 0 0 0 0 0 0 0 0
40 40 45 48 47 51 60 69 75 78 81 85 87 85 78 69 64 57 44 31 22 16 11 7 6 7 8 8 7 4 2 1 1 0 0 0 1 1 0 0 0 0 0
32 34 42 48 49 53 60 70 76 79 82 83 83 82 77 71 65 58 45 29 18 12 7 5 5 6 9 11 9 5 2 1 0 0 0 1 1 2 1 0 0 0 0
27 31 37 43 47 53 61 69 75 78 79 79 79 76 73 67 62 55 43 30 20 13 9 7 8 10 12 12 9 6 3 1 1 0 0 1 1 2 2 1 0 0 0
26 31 34 33 36 45 57 67 75 79 78 77 76 73 66 60 56 50 41 32 24 17 12 11 13 14 12 9 6 4 2 1 0 0 0 1 1 2 2 1 0 0 0
27 31 31 26 26 33 46 59 70 76 77 76 74 69 62 54 48 43 36 30 25 20 14 12 12 12 10 7 4 3 1 0 0 0 0 1 2 1 1 1 0 0 0
28 31 31 27 24 26 34 45 57 65 70 71 68 62 53 43 34 29 28 27 25 19 14 11 10 10 9 6 3 3 1 0 0 0 0 1 2 1 0 0 1 1 0
31 32 33 33 30 27 31 39 45 49 53 55 54 48 38 27 19 17 23 29 24 17 13 11 11 9 7 5 3 3 2 0 0 0 0 2 2 1 1 2 3 3 2
35 34 35 37 35 31 35 41 41 40 41 39 38 35 29 24 17 15 24 29 22 14 11 12 12 8 5 4 3 2 1 0 0 0 2 4 4 2 2 4 5 5 5
37 35 36 39 38 35 37 40 39 40 40 36 34 34 34 33 28 25 28 28 22 15 12 14 13 7 4 3 3 1 0 0 0 2 5 6 5 3 2 3 4 5 6
35 34 37 44 46 44 41 38 37 39 39 36 34 34 35 35 34 35 35 32 29 25 23 24 21 13 7 5 4 2 0 0 1 5 8 6 4 3 1 1 1 3 3
32 33 39 48 53 53 49 42 37 37 35 32 30 28 27 29 34 38 39 39 36 35 35 34 32 24 15 11 8 4 0 1 3 7 7 5 3 3 3 2 1 1 2
31 33 38 45 51 52 47 41 38 38 36 32 27 25 25 27 31 33 35 38 38 37 36 35 35 31 23 17 12 6 1 1 3 5 5 3 2 5 6 5 3 2 2
31 32 33 36 40 42 39 33 32 36 37 33 28 25 24 25 27 27 28 31 32 31 31 31 32 31 26 20 16 9 4 3 4 5 5 5 5 6 9 8 6 4 2
27 27 27 26 28 33 34 29 28 32 32 28 25 22 20 21 23 24 24 24 24 25 25 25 27 28 25 20 17 13 9 7 7 7 8 10 9 8 9 9 8 5 3
19 19 19 19 20 24 26 27 27 28 26 22 19 17 16 16 17 18 18 17 18 20 20 19 21 23 22 18 14 12 11 10 9 8 9 11 12 11 10 10 8 6 4
15 16 17 18 18 17 18 21 22 22 20 17 15 12 12 11 9 9 10 11 14 16 16 16 16 17 17 14 8 6 8 7 6 6 6 7 9 9 10 9 8 6 4
14 15 18 19 17 15 14 14 15 14 13 12 9 6 5 4 3 3 5 8 11 14 14 14 13 12 12 10 6 3 3 3 2 2 2 2 3 6 6 6 6 5 2
11 11 14 15 14 13 13 12 10 8 7 6 4 2 1 1 1 1 4 7 10 11 11 10 9 7 7 7 5 2 1 0 0 0 0 0 1 2 3 3 3 2 1
5 5 7 9 11 11 10 9 8 6 4 4 2 1 0 0 0 1 3 6 9 10 9 7 6 5 4 5 4 2 0 0 0 0 0 0 0 1 1 1 1 1 0
2 3 4 6 8 8 7 6 6 6 5 4 3 1 1 0 0 1 3 5 7 8 7 6 6 5 3 2 2 2 0 0 0 0 0 0 0 0 0 0 0 0 0
2 3 3 5 6 6 5 5 5 5 4 4 2 1 0 0 0 1 2 3 4 6 6 5 5 5 3 1 1 1 0 0 0 0 0 0 0 0 0 0 0 0 0
3 3 3 4 5 6 5 6 6 5 3 2 1 0 0 0 0 1 1 1 2 5 5 4 4 4 3 2 1 0 0 0 0 0 0 0 0 0 0 0 0 0 0
Wind_Speed
11 16 17 13 12 12 13 14 15 16 16 16 16 15 14 14 13 13 12 11 11 10 10 10 10 10 10 10 11 11 11 12 12 12 12 11 11 11 11 10 9 12 12
14 17 17 13 13 12 13 14 15 15 16 16 15 15 14 13 13 12 11 11 10 10 10 10 10 10 10 10 11 11 11 11 11 11 12 12 11 10 9 5 5 11 11
16 17 17 13 13 13 13 14 14 15 15 16 15 15 14 13 12 12 11 10 10 10 10 9 9 9 10 10 10 10 10 10 10 10 11 10 11 9 8 7 11 12 10
16 16 15 15 13 13 13 14 14 15 16 16 15 16 15 14 13 12 12 11 10 9 9 9 9 9 9 10 10 10 9 9 9 10 8 7 9 11 9 9 9 10 10
15 14 16 15 13 13 14 14 14 15 16 16 15 15 15 14 12 11 11 11 10 9 9 9 9 9 9 9 9 9 9 8 8 11 5 6 8 10 9 9 9 9 9
15 15 17 14 14 13 14 14 14 15 15 15 15 14 14 13 12 11 11 11 10 9 9 9 9 9 9 9 9 8 8 8 11 7 6 6 8 10 9 9 9 9 8
15 14 17 13 13 13 13 14 14 14 13 13 13 13 12 12 11 11 11 10 10 9 9 9 9 8 8 8 8 8 7 8 10 5 5 5 9 11 9 9 9 9 8
14 14 15 14 13 12 12 12 12 11 11 11 11 11 11 10 10 10 10 10 9 9 9 9 8 8 8 7 7 7 7 8 8 5 5 5 11 9 9 8 8 8 8
13 13 14 14 13 12 10 10 10 10 10 10 10 11 10 10 10 10 9 9 9 9 9 9 9 8 7 7 6 6 6 7 9 4 6 5 11 9 9 9 9 8 8
12 12 11 12 12 11 11 10 9 9 9 10 10 11 11 10 10 10 10 9 9 9 9 9 8 8 7 6 6 6 6 8 10 6 4 8 11 10 9 9 9 9 8
10 10 10 10 10 10 10 10 10 9 7 8 9 10 10 10 10 10 9 9 9 9 9 8 8 8 8 8 7 6 7 8 7 4 3 11 10 10 10 10 10 9 9
9 9 8 9 9 8 7 8 6 7 7 7 7 9 8 6 5 6 8 8 9 9 9 9 8 9 10 9 10 9 8 9 5 5 5 10 8 9 10 10 10 9 9
8 6 7 7 7 7 6 5 4 3 4 5 5 6 4 4 4 4 5 7 8 10 9 9 10 9 8 6 5 8 7 6 4 3 6 10 7 8 9 10 10 9 9
6 5 4 5 6 6 5 4 4 4 3 3 4 4 4 3 3 4 4 4 5 5 5 6 6 7 7 7 7 7 7 6 4 2 6 9 6 6 8 9 9 9 8
4 3 3 3 3 4 3 2 2 3 3 3 3 4 5 4 4 4 3 3 5 4 5 5 5 6 6 7 7 7 6 6 5 3 3 8 6 6 7 9 9 9 8
3 2 2 2 3 3 2 2 1 2 2 2 2 3 4 4 3 3 4 4 4 4 5 5 6 5 5 4 5 5 5 5 4 3 3 5 7 6 7 8 8 8 8
2 2 1 2 2 2 2 2 2 2 2 1 1 2 3 3 2 3 3 3 4 4 5 5 5 4 4 4 4 4 3 3 3 3 3 2 4 6 7 7 8 8 8
3 3 2 2 2 2 1 1 1 1 1 0 0 1 1 2 2 2 2 3 3 4 4 5 5 5 4 4 3 3 2 2 2 2 2 2 2 3 7 8 8 9 9
5 4 4 3 3 2 2 1 1 1 1 0 0 1 1 1 1 2 2 2 3 4 4 5 4 5 4 4 3 2 1 1 1 2 2 2 2 3 5 9 10 9 10
6 5 5 4 4 2 2 1 1 2 1 1 1 1 1 1 1 2 2 3 4 4 4 4 5 5 4 4 4 3 2 2 2 2 3 4 4 4 5 7 7 9 11
8 7 6 5 5 3 1 0 0 1 1 1 1 2 2 2 2 2 2 3 3 3 4 5 5 6 5 5 5 4 3 3 3 3 3 4 5 5 6 6 6 6 7
9 9 7 6 5 4 2 1 1 1 1 2 2 3 3 3 3 2 2 3 3 3 4 4 4 4 4 5 5 5 3 3 3 3 3 4 5 5 6 7 8 7 7
9 9 7 7 6 5 3 1 1 1 1 1 2 3 4 4 4 3 3 3 2 2 2 3 3 5 5 5 4 4 4 5 4 3 4 4 5 5 6 6 8 8 8
8 8 8 7 7 6 4 2 1 1 1 2 2 3 4 5 5 5 4 3 2 2 2 2 2 2 4 4 3 2 1 4 5 5 3 4 5 5 5 6 7 8 7
8 8 7 8 8 7 6 4 3 3 3 3 3 5 4 5 6 6 5 4 4 3 3 2 1 0 1 2 2 3 3 3 3 5 5 4 4 4 5 6 5 6 6
8 8 8 9 9 9 8 7 6 6 5 5 5 4 4 4 5 8 7 5 5 4 4 4 3 3 2 2 2 2 2 3 4 4 6 6 5 4 5 4 4 4 4
Wind_Direction
148 140 140 143 140 138 140 144 147 148 148 149 148 148 146 143 141 138 136 134 133 130 127 125 122 122 122 121 121 122 122 123 125 125 125 124 122 120 120 131 149 112 110
142 139 141 142 140 139 139 142 144 146 148 148 148 147 146 145 142 140 139 138 137 133 129 126 124 125 126 126 127 129 129 131 134 135 135 132 127 124 126 130 56 104 121
138 139 146 140 139 137 137 138 140 143 145 146 147 146 146 145 143 141 141 140 139 137 134 130 129 129 129 130 133 135 137 139 142 149 167 149 129 131 128 111 99 115 121
137 143 146 138 138 136 135 136 138 142 144 145 146 146 147 146 145 145 146 145 143 141 139 137 135 134 135 137 141 143 145 146 151 178 187 136 135 135 139 130 127 129 128
138 143 136 140 138 138 137 137 139 142 143 145 146 147 147 147 147 148 150 149 148 146 145 144 142 141 143 146 148 148 148 149 165 216 145 131 126 138 147 143 141 138 136
141 143 137 143 139 139 140 141 141 142 144 146 147 148 148 149 149 151 153 153 153 152 152 150 147 148 150 153 154 152 153 161 201 186 135 149 137 145 156 154 151 146 144
142 141 141 145 142 142 143 145 145 145 145 146 147 148 149 150 152 154 156 157 157 157 156 155 153 154 156 157 160 161 166 191 237 149 157 163 122 143 166 165 159 155 155
140 139 137 145 147 147 146 144 143 143 144 145 147 148 149 152 154 157 159 161 161 161 160 159 159 160 162 165 169 172 181 221 225 171 172 148 117 156 174 170 167 167 166
140 139 145 151 152 150 146 144 142 143 146 149 150 151 154 157 160 164 164 166 166 166 165 165 166 167 168 172 176 181 192 235 255 181 183 148 137 174 182 176 175 177 177
141 142 146 152 154 158 155 149 148 153 154 156 158 161 162 165 170 173 177 171 173 172 172 173 174 174 174 177 180 186 200 230 241 198 188 135 150 184 189 185 184 185 186
141 141 151 152 157 162 158 152 160 161 161 166 169 170 178 186 183 183 186 167 180 181 181 182 182 180 182 184 190 194 215 231 219 218 182 123 163 192 195 190 190 191 193
148 151 155 154 159 163 155 155 169 175 172 190 179 181 198 194 199 199 148 177 193 194 192 192 190 191 213 197 184 199 223 230 232 205 142 136 175 196 196 192 192 194 195
146 152 152 157 163 165 159 163 166 172 173 194 187 191 200 196 199 207 181 184 198 204 206 188 199 212 215 215 209 210 226 230 226 216 135 142 173 192 191 189 189 191 192
140 149 155 161 170 176 171 169 172 175 179 191 183 203 199 207 211 214 219 208 204 209 216 211 215 214 222 216 223 228 224 233 234 215 127 141 166 184 186 184 184 185 183
123 133 153 159 164 171 177 192 185 183 182 175 187 206 211 210 216 218 231 229 228 222 216 220 221 213 219 218 223 227 236 238 244 235 149 146 166 180 183 179 178 180 180
98 107 127 148 145 163 179 183 185 193 178 187 198 215 223 230 224 230 236 234 237 237 235 226 218 214 220 221 221 223 232 231 231 236 236 156 159 167 171 171 168 167 168
75 76 77 130 131 149 173 190 195 191 182 206 217 233 240 252 239 238 251 251 250 240 232 228 221 217 216 211 209 212 221 224 212 220 233 227 164 151 154 153 150 149 149
52 55 54 60 99 115 116 132 156 164 159 191 269 257 247 250 255 256 258 259 257 248 236 224 217 209 210 206 192 188 191 197 192 191 200 190 185 152 140 134 135 136 137
48 49 53 53 58 73 90 105 127 113 94 70 34 312 295 256 258 269 274 281 266 248 239 231 215 209 195 185 166 140 143 146 129 125 112 108 107 113 120 115 112 115 124
46 46 47 48 45 51 92 118 136 106 83 63 52 14 338 312 309 286 266 259 261 252 241 233 217 202 183 165 144 116 93 96 103 104 101 90 89 101 103 112 110 99 99
41 38 39 37 35 35 43 17 121 83 68 61 58 30 0 342 327 297 277 261 252 251 244 233 220 198 180 155 140 127 91 66 71 81 96 98 92 91 95 96 96 99 99
37 31 31 30 31 30 36 23 21 42 63 45 43 43 18 1 344 310 297 280 263 250 241 234 220 200 181 176 166 151 154 128 71 56 85 103 101 92 91 91 93 92 93
36 28 26 24 23 25 30 73 111 116 119 73 39 37 24 12 7 352 326 307 288 271 254 237 221 203 186 185 179 168 170 166 132 84 65 83 92 92 90 89 89 87 88
36 33 31 28 29 26 24 43 75 88 70 42 34 37 30 24 19 11 353 344 334 342 306 270 228 223 196 186 175 173 138 134 148 136 95 78 82 87 94 96 91 86 87
40 39 39 38 38 35 39 48 65 70 67 61 58 55 43 38 32 25 17 10 10 14 7 6 1 277 209 190 166 149 132 112 114 132 137 129 100 78 81 86 90 92 91
48 47 46 47 44 42 46 49 57 70 73 72 62 55 51 46 39 32 28 28 30 33 33 39 44 51 57 102 117 129 143 147 152 136 137 140 120 92 78 76 87 97 102